ヒル彗星

C/2009 U3 ( Hill )

English version
Home page
Updated on August 29, 2010

---------------------------------------------------------------------

・ プロフィール

発見日 2009年10月21日
発見光度 17.6等
発見者 R. E. Hill (Catalina)

・ 写真集

・ 軌道要素

The following orbital elements are taken from MPC 70812:

Epoch 2010 Mar. 25.0 TT = JDT 2455280.5
T 2010 Mar. 20.2544 TT                                  MPC
q   1.414423             (2000.0)            P               Q
z  +0.005919       Peri.   77.7019      -0.3248610      -0.7379324
                   Node    49.3223      +0.2107010      -0.6662160
e   0.991627       Incl.   51.2605      +0.9219926      -0.1077591
From 577 observations 2009 Oct. 20-2010 June 18.

・ 星図

・ 光度変化

        m1 = 13.0 + 5 logΔ + 10.0 log r

---------------------------------------------------------------------

軌道要素はMPCのEphemerides and Orbital Elementsに掲載されたものです。
星図はステラナビゲータ Ver.8 (アストロアーツ) で作成したものです。
光度グラフはComet for Windowsで作成したものです。

---------------------------------------------------------------------

Copyright(C) Seiichi Yoshida (comet@aerith.net). All rights reserved.